x

East Santa Barbara - 12nm Southwest Of Santa Barbara, Ca (46053) Weather Station

9:10pm - Tue 21st Nov 2017 All times are PST. -8 hours from GMT.

  • Wind
    4mph, 7mph gusts
  • Sea Temp 62°f
  • Air Temp 62°f
  • Sea Pressure 1018.4mb
  • East Santa Barbara  - 12nm Southwest Of Santa Barbara, Ca
  • East Santa Barbara  - 12nm Southwest Of Santa Barbara, Ca

More Historic Weather Station data

Upgrade to MSW Pro to gain access to the past 30 days of data for over 8000 Wavebouys and Weather Stations around the globe.

Join

Comparision Forecast

View Surf forecast
   
Tue 11/21 9:10pm  -   -   -  4 7 mph 1018.4mb 62f 62f
9:00pm  -   -   -  7 7 mph 1018.3mb 62f 62f
8:30pm  -   -   -  7 9 mph 1018.3mb 62f 62f
8:20pm  -   -   -  7 7 mph 1018.1mb 62f 62f
8:10pm  -   -   -  7 7 mph 1018mb 62f 62f
8:00pm  -   -   -  7 7 mph 1018mb 62f 62f
7:50pm 1.6ft 11s 6s 7 7 mph 1018.1mb 61f 62f
7:40pm 1.6ft  -  6s 7 7 mph 1018mb 61f 62f
7:30pm  -   -   -  7 9 mph 1017.9mb 61f 62f
7:20pm  -   -   -  9 11 mph 1018mb 61f 62f
7:10pm  -   -   -  9 9 mph 1017.9mb 61f 63f
7:00pm  -   -   -  7 9 mph 1017.6mb 61f 63f
6:50pm 2ft 12s 7s 7 7 mph 1017.6mb 62f 63f
6:40pm 2ft  -  7s 4 7 mph 1017.6mb 62f 63f
6:30pm  -   -   -  4 7 mph 1017.5mb 62f 62f
6:20pm  -   -   -  4 7 mph 1017.5mb 61f 62f
6:10pm  -   -   -  4 7 mph 1017.3mb 61f 63f
6:00pm  -   -   -  4 7 mph 1017.4mb 61f 63f
5:50pm 2ft 12s 8s 4 7 mph 1017.3mb 61f 63f
5:40pm 2ft  -  8s 4 7 mph 1017.4mb 61f 63f
5:30pm  -   -   -  4 7 mph 1017.3mb 61f 63f
5:20pm  -   -   -  4 7 mph 1017.2mb 62f 63f
5:10pm  -   -   -  7 7 mph 1017.3mb - 64f
5:00pm  -   -   -  7 7 mph 1017.1mb - 64f
4:50pm 1.6ft 12s 8s 7 7 mph 1017mb 62f 64f
4:40pm 1.6ft  -  8s 7 7 mph 1016.9mb - 64f
4:30pm  -   -   -  7 9 mph 1016.9mb 62f 64f
4:20pm  -   -   -  7 9 mph 1016.9mb 62f 64f
4:10pm  -   -   -  7 9 mph 1016.9mb 61f 64f
4:00pm  -   -   -  4 4 mph 1016.8mb 60f 64f
3:50pm 1.6ft 11s 7s 2 4 mph 1016.7mb 60f 65f
3:40pm  -   -   -   -  2 mph 1016.8mb 60f 65f
3:30pm  -   -   -   -  2 mph 1016.6mb 60f 65f
3:20pm  -   -   -  2 2 mph 1016.6mb 60f 64f
3:10pm  -   -   -  2 4 mph 1016.6mb 60f 64f
3:00pm  -   -   -  4 4 mph 1016.6mb 60f 64f
2:50pm 1.6ft 11s 8s 4 4 mph 1016.8mb 60f 64f
2:40pm  -   -   -  4 4 mph 1016.9mb 60f 64f
2:30pm  -   -   -  4 4 mph 1016.9mb 60f 64f
2:20pm  -   -   -  4 4 mph 1017mb 60f 64f
2:10pm  -   -   -  2 4 mph 1017.2mb 60f 64f
2:00pm  -   -   -  2 4 mph 1017.1mb 60f 64f
1:50pm 1.6ft 12s 7s 2 4 mph 1017.2mb 60f 64f
1:40pm 1.6ft  -  7s 2 4 mph 1017.3mb 60f 64f
1:30pm  -   -   -  4 4 mph 1017.4mb 60f 64f
1:20pm  -   -   -  4 4 mph 1017.5mb 60f 64f
1:10pm  -   -   -  4 4 mph 1017.6mb 60f 64f
1:00pm  -   -   -  4 4 mph 1017.8mb 60f 64f
12:50pm 1.6ft 11s 7s 2 4 mph 1018mb 60f 64f
12:40pm 1.6ft  -  7s  -  2 mph 1018.1mb 60f 64f
12:30pm  -   -   -   -  2 mph 1018.3mb 60f 63f
12:20pm  -   -   -   -  2 mph 1018.4mb 60f 63f
12:10pm  -   -   -  2 4 mph 1018.5mb 60f 62f
12:00pm  -   -   -  4 4 mph 1018.6mb 60f 62f
11:50am 2ft 11s 8s 4 4 mph 1018.8mb 60f 63f
11:40am 2ft  -  8s 4 4 mph 1018.9mb 60f 63f
11:30am  -   -   -  4 7 mph 1019.1mb 60f 63f
11:20am  -   -   -  7 9 mph 1019.3mb 60f 62f
11:10am  -   -   -  7 9 mph 1019.4mb 60f 62f
11:00am  -   -   -  7 7 mph 1019.4mb 60f 62f
10:50am 2ft  -  8s 7 9 mph 1019.7mb 60f 62f
10:40am 2ft  -  8s 7 9 mph 1019.9mb 60f 62f
10:30am  -   -   -  7 7 mph 1020mb 60f 62f
10:20am  -   -   -  4 4 mph 1019.9mb 60f 63f
10:10am  -   -   -  4 7 mph 1019.9mb 60f 63f
10:00am  -   -   -  4 4 mph 1019.8mb 60f 62f
9:50am 1.6ft 12s 7s 2 4 mph 1019.8mb 60f 62f
9:40am 1.6ft  -  7s 2 2 mph 1019.8mb 60f 62f
9:30am  -   -   -  2 4 mph 1020mb 60f 61f
9:20am  -   -   -  4 4 mph 1020mb 60f 61f
9:10am  -   -   -  4 4 mph 1019.9mb 60f 61f
9:00am  -   -   -  4 7 mph 1019.7mb - 61f
8:50am 2ft 12s 7s 4 4 mph 1019.7mb 60f 62f
8:40am  -   -   -  2 4 mph 1019.7mb 60f 63f
8:30am  -   -   -   -  0 mph 1019.5mb 60f 64f
8:20am  -   -   -   -  2 mph 1019.5mb 60f 64f
8:10am  -   -   -   -  2 mph 1019.3mb 60f 63f
8:00am  -   -   -  2 2 mph 1019.1mb 60f 62f
7:50am 1.6ft 11s 7s 2 2 mph 1019.1mb 60f 62f
7:40am 1.6ft  -  7s 2 4 mph 1019mb 60f 61f
7:30am  -   -   -  2 4 mph 1018.8mb 60f 61f
7:20am  -   -   -  2 2 mph 1018.7mb 60f 61f
7:10am  -   -   -   -  2 mph 1018.5mb 60f 62f
7:00am  -   -   -   -  2 mph 1018.3mb 60f 62f
6:50am 1.6ft  -  6s  -  2 mph 1018.1mb - 62f
6:40am  -   -   -   -  2 mph 1018mb 60f 61f
6:30am  -   -   -   -  0 mph 1017.9mb 60f 61f
6:20am  -   -   -   -  2 mph 1017.7mb 60f 62f
6:10am  -   -   -  2 2 mph 1017.6mb 60f 62f
6:00am  -   -   -  2 2 mph 1017.5mb 60f 62f
5:50am 1.6ft 12s 6s  -  2 mph 1017.3mb 60f 62f
5:40am  -   -   -  2 2 mph 1017.3mb 60f 62f
5:30am  -   -   -  2 4 mph 1017.1mb 60f 62f
5:20am  -   -   -  4 4 mph 1016.9mb 60f 62f
5:10am  -   -   -  4 4 mph 1016.9mb 60f 62f
5:00am  -   -   -  4 4 mph 1016.9mb 60f -
4:50am 1.6ft 12s 6s 4 4 mph 1016.9mb 60f 61f
4:40am  -   -   -  2 4 mph 1016.9mb 60f 61f
4:30am  -   -   -   -  2 mph 1016.9mb 60f 61f
4:20am  -   -   -   -  0 mph 1016.9mb 60f 61f
4:10am  -   -   -   -  2 mph 1016.7mb 60f 61f
4:00am  -   -   -  2 2 mph 1016.7mb 60f 61f
3:50am 1.6ft 13s 6s 2 4 mph 1016.8mb 60f 61f
3:40am 1.6ft  -  6s 4 4 mph 1016.8mb 60f 61f
3:30am  -   -   -  4 7 mph 1016.8mb 60f 61f
3:20am  -   -   -  4 7 mph 1016.7mb 60f 61f
3:10am  -   -   -  4 4 mph 1016.7mb 60f 61f
3:00am  -   -   -  4 4 mph 1016.7mb 60f 61f
2:50am 1.6ft 12s 5s 2 4 mph 1016.8mb 60f 61f
2:40am 1.6ft  -  5s 2 4 mph 1016.9mb 60f 61f
2:30am  -   -   -  2 2 mph 1017mb 60f 61f
2:20am  -   -   -  4 7 mph 1016.9mb 60f 61f
2:10am  -   -   -  7 7 mph 1017mb 60f 61f
2:00am  -   -   -  4 7 mph 1017.1mb 60f 61f
1:50am 2ft 12s 5s 7 7 mph 1017mb 60f 61f
1:40am  -   -   -  7 9 mph 1016.9mb 60f 61f
1:30am  -   -   -  7 9 mph 1017mb 60f 61f
1:20am  -   -   -  7 9 mph 1017mb 60f 61f
1:10am  -   -   -  4 7 mph 1017mb 60f 61f
1:00am  -   -   -  4 4 mph 1017mb 60f 61f
12:50am 2ft 12s 5s 2 4 mph 1017mb 60f 61f
12:40am 2ft  -  5s 2 4 mph 1017mb 60f 61f
12:30am  -   -   -  2 2 mph 1017mb 60f 61f
12:20am  -   -   -  2 4 mph 1016.8mb 60f 61f
12:10am  -   -   -  2 4 mph 1016.9mb 60f 61f
12:00am  -   -   -  4 4 mph 1016.9mb 60f 62f
Mon 11/20 11:50pm 2ft 13s 5s 4 4 mph 1017mb 60f 62f
11:40pm  -   -   -  4 7 mph 1016.9mb 60f 62f
11:30pm  -   -   -  4 7 mph 1016.9mb 60f 62f
11:20pm  -   -   -  4 7 mph 1016.8mb 60f 62f
11:10pm  -   -   -  4 7 mph 1016.6mb 60f 62f
11:00pm  -   -   -  4 7 mph 1016.7mb - 62f
10:50pm 2ft 12s 4s 2 4 mph 1016.7mb 60f 62f
10:40pm  -   -   -  4 7 mph 1016.8mb 60f 62f
10:30pm  -   -   -  4 7 mph 1016.7mb 60f 62f
10:20pm  -   -   -  2 4 mph 1016.7mb 60f 63f
10:10pm  -   -   -  2 4 mph 1016.7mb 60f 64f
10:00pm  -   -   -  2 4 mph 1016.6mb - 64f
9:50pm 2.5ft 13s 5s 4 9 mph 1016.6mb 60f 65f
9:40pm 2.5ft  -  5s 9 9 mph 1016.5mb 60f 64f
9:30pm  -   -   -  11 11 mph 1016.3mb 60f 64f
9:20pm  -   -   -  11 11 mph 1016.4mb 60f 64f
9:10pm  -   -   -  11 11 mph 1016.4mb 60f 63f
9:00pm  -   -   -  11 11 mph 1016.5mb - 63f
8:50pm 2.5ft 13s 5s 11 13 mph 1016.4mb 60f 64f
8:40pm  -   -   -  11 13 mph 1016.4mb 60f 64f
8:30pm  -   -   -  13 13 mph - 60f -
8:20pm  -   -   -  13 16 mph 1016.4mb 60f 64f
8:10pm  -   -   -  13 16 mph 1016.4mb 60f 64f
8:00pm  -   -   -  11 13 mph 1016.5mb 60f 64f
7:50pm 3ft 4s 4s 11 13 mph 1016.6mb 60f 64f
7:40pm  -   -   -  11 13 mph 1016.6mb 60f 64f
7:30pm  -   -   -  13 16 mph 1016.5mb 60f 64f
7:20pm  -   -   -  13 16 mph 1016.3mb 60f 65f
7:10pm  -   -   -  13 16 mph 1016.3mb 60f 65f
7:00pm  -   -   -  13 16 mph 1016.4mb 60f 64f
6:50pm 2.5ft 4s 4s 16 18 mph 1016.4mb 60f 64f
6:40pm  -   -   -  16 18 mph 1016.2mb 60f 64f
6:30pm  -   -   -  16 18 mph 1016.3mb 60f 64f
6:20pm  -   -   -  16 18 mph 1016.2mb 60f 64f
6:10pm  -   -   -  16 18 mph 1016.2mb 60f 64f
6:00pm  -   -   -  13 18 mph 1016.1mb 60f 63f
5:50pm 2ft 13s 4s 16 18 mph 1016.2mb 60f 64f
5:40pm 2ft  -  4s 16 18 mph 1016mb 60f 64f
5:30pm  -   -   -  13 16 mph 1015.9mb 61f 64f
5:20pm  -   -   -  11 13 mph 1016mb 61f 65f
5:10pm  -   -   -  13 16 mph 1016mb 61f 66f
5:00pm  -   -   -  11 13 mph 1016mb 60f 66f
4:50pm 2ft 13s 4s 9 9 mph 1015.9mb 60f 66f
4:40pm  -   -   -  9 9 mph 1016mb 61f 67f
4:30pm  -   -   -  9 9 mph 1015.9mb 60f 66f
4:20pm  -   -   -  7 9 mph 1015.8mb 61f 65f
4:10pm  -   -   -  4 7 mph 1015.9mb 60f 65f
4:00pm  -   -   -   -  2 mph 1016mb 60f 64f
3:50pm 2.5ft 13s 4s  -  2 mph 1015.9mb 60f 64f
3:40pm 2.5ft  -  4s  -  2 mph 1016.1mb 60f 64f
3:30pm  -   -   -  2 2 mph 1016.1mb 60f 64f
3:20pm  -   -   -   -  2 mph 1016.2mb 60f 65f
3:10pm  -   -   -   -  2 mph 1016.2mb 60f 65f
3:00pm  -   -   -  2 4 mph 1016.1mb 60f 65f
2:50pm 2.5ft 5s 4s 2 2 mph 1016.3mb 60f 65f
2:40pm 2.5ft  -  4s 2 4 mph 1016.4mb 60f 66f
2:30pm  -   -   -  2 4 mph 1016.6mb 60f 63f
2:20pm  -   -   -  2 4 mph 1016.5mb 60f 63f
2:10pm  -   -   -  2 2 mph 1016.6mb 60f 63f
2:00pm  -   -   -   -  2 mph 1016.8mb 60f 63f
1:50pm 3ft 5s 4s 2 2 mph 1016.9mb 60f 63f
1:40pm  -   -   -  2 2 mph 1016.9mb - 63f
1:30pm  -   -   -   -  2 mph 1016.9mb 60f 63f
1:20pm  -   -   -   -  2 mph 1016.9mb 60f 63f
1:10pm  -   -   -   -  2 mph 1017.1mb 60f 62f
1:00pm  -   -   -  2 2 mph 1017.1mb 60f 62f
12:50pm 2.5ft 5s 4s 2 2 mph 1017mb 60f 62f
12:40pm  -   -   -  2 2 mph 1017mb 60f 62f
12:30pm  -   -   -   -  2 mph 1017mb 60f 62f
12:20pm  -   -   -   -  2 mph 1017.1mb 60f 61f
12:10pm  -   -   -  2 4 mph 1017.3mb 60f 61f
12:00pm  -   -   -  2 4 mph 1017.5mb 60f 61f
11:50am 2.5ft 14s 4s 4 4 mph 1017.6mb 60f 61f
11:40am 2.5ft  -  4s 4 7 mph 1017.8mb 60f 61f
11:30am  -   -   -  7 9 mph 1017.9mb 60f 61f
11:20am  -   -   -  9 9 mph 1018mb 60f 61f
11:10am  -   -   -  9 9 mph 1018.1mb 60f 61f
11:00am  -   -   -  7 9 mph 1018.5mb 60f 61f
10:50am 2.5ft 13s 4s 9 11 mph 1018.4mb 60f 61f
10:40am 2.5ft  -  4s 9 11 mph 1018.5mb 60f 61f
10:30am  -   -   -  7 9 mph 1018.7mb 60f 62f
10:20am  -   -   -  9 9 mph 1018.7mb 60f 61f
10:10am  -   -   -  7 9 mph 1018.6mb 60f 61f
10:00am  -   -   -  4 7 mph 1018.3mb 60f 61f
9:50am 2.5ft 5s 4s 2 4 mph 1018.4mb 60f 61f
9:40am 2.5ft  -  4s 2 4 mph 1018.4mb 60f 61f
9:30am  -   -   -  4 7 mph 1018.3mb 60f 61f
9:20am  -   -   -  7 9 mph 1018.4mb 60f 60f
9:10am  -   -   -  7 9 mph 1018.2mb 60f 60f
9:00am  -   -   -  7 9 mph 1018.2mb 60f 60f
8:50am 2ft 6s 5s 7 9 mph 1017.9mb 60f 59f
8:40am  -   -   -  7 7 mph 1017.8mb 60f 59f
8:30am  -   -   -  4 7 mph - 60f -
8:20am  -   -   -  4 7 mph 1017.4mb 60f 59f
8:10am  -   -   -  4 7 mph 1017.2mb - 60f
8:00am  -   -   -  4 7 mph 1017.2mb 60f 60f
7:50am 2ft 14s 5s 4 4 mph 1017.2mb 60f 60f
7:40am 2ft  -  5s 2 4 mph 1017.2mb 60f 60f
7:30am  -   -   -  2 4 mph 1017.4mb 60f 60f
7:20am  -   -   -  2 2 mph 1017.3mb 60f 59f
7:10am  -   -   -  2 4 mph 1017.3mb 60f 59f
7:00am  -   -   -  4 4 mph 1017.5mb 60f 59f
6:50am 2ft 14s 5s 2 4 mph 1017.5mb 60f 59f
6:40am 2ft  -  5s  -  2 mph 1017.1mb 60f 59f
6:30am  -   -   -  2 4 mph 1016.9mb 60f 59f
6:20am  -   -   -  4 4 mph 1017.2mb 60f 60f
6:10am  -   -   -  4 7 mph 1017.2mb 60f 60f
6:00am  -   -   -  4 4 mph 1017.1mb 60f 60f
5:50am 2ft 14s 5s 2 4 mph 1017.1mb 60f 60f
5:40am 2ft  -  5s 2 4 mph 1017mb 60f 60f
5:30am  -   -   -  2 4 mph 1016.9mb 60f 60f
5:20am  -   -   -  4 4 mph 1016.9mb 60f 59f
5:10am  -   -   -  4 4 mph 1017mb 60f 59f
5:00am  -   -   -  4 4 mph 1016.9mb 60f 59f
4:50am 2.5ft 15s 5s 4 7 mph 1016.6mb 60f 60f
4:40am 2.5ft  -  5s 4 7 mph 1016.7mb 60f 60f
4:30am  -   -   -  7 7 mph 1016.8mb 60f 60f
4:20am  -   -   -  4 7 mph 1016.7mb 60f 60f
4:10am  -   -   -  4 4 mph 1016.4mb 60f 60f
4:00am  -   -   -  4 4 mph 1016.3mb 60f 60f
3:50am 2ft 6s 5s 4 7 mph 1016mb 60f 60f
3:40am 2ft  -  5s 4 7 mph 1016.1mb 60f 60f
3:30am  -   -   -  2 4 mph 1015.8mb 60f 60f
3:20am  -   -   -  2 4 mph 1015.4mb 60f 60f
3:10am  -   -   -  4 4 mph 1015.4mb 60f 60f
3:00am  -   -   -  4 7 mph 1015.3mb 60f 60f
2:50am 2.5ft 6s 5s 4 7 mph 1015.2mb 60f 60f
2:40am  -   -   -  7 9 mph 1015.2mb 60f 60f
2:30am  -   -   -  7 11 mph 1015.3mb 60f 60f
2:20am  -   -   -  9 11 mph 1015.2mb 60f 60f
2:10am  -   -   -  7 9 mph 1015.8mb 60f 60f
2:00am  -   -   -  7 9 mph 1015.9mb 60f 60f
1:50am 2.5ft 6s 5s 7 9 mph 1015.8mb - 60f
1:40am 2.5ft  -  5s 4 7 mph 1016.2mb 60f 60f
1:30am  -   -   -  4 7 mph 1016.3mb 60f 60f
1:20am  -   -   -  4 4 mph 1016.4mb 60f 60f
1:10am  -   -   -  4 7 mph 1016.4mb 60f 60f
1:00am  -   -   -  4 7 mph 1016.4mb 60f 60f
12:50am 2.5ft 5s 5s 4 4 mph 1016.5mb 60f 60f
12:40am  -   -   -  2 4 mph 1016.7mb 60f 60f
12:30am  -   -   -  4 4 mph 1016.6mb 60f 60f
12:20am  -   -   -  4 7 mph 1016.4mb 60f 60f
12:10am  -   -   -  4 7 mph 1016.5mb 60f 60f
12:00am  -   -   -  4 4 mph 1016.6mb 60f 60f
Sun 11/19 11:50pm 2.5ft 5s 4s 4 7 mph 1016.8mb 59f 60f
11:40pm 2.5ft  -  4s 4 7 mph 1016.9mb 59f 60f
11:30pm  -   -   -  4 7 mph 1016.8mb 60f 60f
11:20pm  -   -   -  7 9 mph 1016.7mb 60f 60f
11:10pm  -   -   -  4 7 mph 1016.8mb 60f 60f
11:00pm  -   -   -  4 4 mph 1016.7mb 60f 60f
10:50pm 3ft 5s 4s 4 7 mph 1016.8mb 60f 60f
10:40pm 3ft  -  4s 7 7 mph 1016.9mb 60f 60f
10:30pm  -   -   -  7 9 mph 1017mb 60f 60f
10:20pm  -   -   -  4 7 mph 1017.1mb 60f 60f
10:10pm  -   -   -  2 4 mph 1017mb 60f 60f
10:00pm  -   -   -  2 4 mph 1016.8mb 60f 60f
9:50pm 3.5ft 5s 4s 2 2 mph 1016.9mb 60f 60f
9:40pm 3.5ft  -  4s 4 4 mph 1016.9mb 60f 60f
9:30pm  -   -   -  2 4 mph 1017mb 60f 60f
9:20pm  -   -   -  4 7 mph 1017.1mb 60f 60f
9:10pm  -   -   -  4 7 mph 1017mb 60f 60f
9:00pm  -   -   -  9 11 mph 1016.9mb 60f 61f
8:50pm 3.5ft 5s 4s 11 16 mph 1016.9mb 60f 60f
8:40pm  -   -   -  13 16 mph 1017mb 60f 60f
8:30pm  -   -   -  16 20 mph 1017.1mb 60f 61f
8:20pm  -   -   -  18 20 mph 1017.1mb 60f 61f
8:10pm  -   -   -  18 20 mph 1017mb 60f 61f
8:00pm  -   -   -  13 18 mph 1017mb 60f 61f
7:50pm 3.5ft 5s 4s 13 16 mph 1016.6mb 60f 61f
7:40pm 3.5ft  -  4s 11 13 mph 1016.6mb 60f 61f
7:30pm  -   -   -  11 13 mph 1016.6mb 60f 61f
7:20pm  -   -   -  13 16 mph 1016.5mb 60f 61f
7:10pm  -   -   -  13 16 mph 1016.4mb 60f 61f
7:00pm  -   -   -  13 16 mph 1016.4mb 61f 61f
6:50pm 3ft 5s 4s 13 18 mph 1016.4mb 61f 61f
6:40pm 3ft  -  4s 13 18 mph 1016.4mb 61f 61f
6:30pm  -   -   -  16 20 mph 1016.2mb 61f 62f
6:20pm  -   -   -  13 20 mph 1016mb 60f 61f
6:10pm  -   -   -  16 18 mph 1016.3mb 60f 61f
6:00pm  -   -   -  16 18 mph 1016.4mb 60f 61f
5:50pm 2.5ft 5s 4s 11 16 mph 1016.3mb 60f 61f
5:40pm 2.5ft  -  4s 11 13 mph 1016.5mb 60f 61f
5:30pm  -   -   -  9 13 mph 1016.6mb 60f 60f
5:20pm  -   -   -  9 11 mph 1016.6mb 60f 60f
5:10pm  -   -   -  9 11 mph 1016.6mb 60f 60f
5:00pm  -   -   -  9 13 mph 1016.5mb 60f 60f
4:50pm 2ft 4s 4s 11 16 mph - - -
4:40pm 2ft  -  4s 11 13 mph 1016.4mb 60f 60f
4:30pm  -   -   -  9 11 mph 1016.2mb 60f 60f
4:20pm  -   -   -  9 9 mph 1016.1mb 60f 60f
4:10pm  -   -   -  7 9 mph 1016.2mb 60f 60f
4:00pm  -   -   -  4 7 mph 1016.1mb 60f 60f
3:50pm 2ft 5s 4s 4 4 mph 1015.9mb 60f 61f
3:40pm  -   -   -  4 4 mph 1015.8mb 60f 61f
3:30pm  -   -   -  7 9 mph 1015.8mb 60f 61f
3:20pm  -   -   -  9 11 mph 1015.8mb 60f 60f
3:10pm  -   -   -  11 16 mph 1016mb 60f 60f
3:00pm  -   -   -  13 13 mph 1016mb - 60f
2:50pm 2ft 10s 4s 13 16 mph 1016mb 60f 60f
2:40pm  -   -   -  13 16 mph 1015.8mb 60f 60f
2:30pm  -   -   -  13 18 mph 1015.9mb 60f 60f
2:20pm  -   -   -  16 18 mph 1015.7mb 60f 60f
2:10pm  -   -   -  13 16 mph 1015.7mb 60f 60f
2:00pm  -   -   -  13 16 mph 1015.9mb 60f 60f
1:50pm 2ft 5s 5s 13 16 mph 1016mb 60f 60f
1:40pm 2ft  -  5s 11 16 mph 1016.2mb 60f 60f
1:30pm  -   -   -  11 13 mph 1016.3mb 60f 60f
1:20pm  -   -   -  9 11 mph 1016.4mb 60f 60f
1:10pm  -   -   -  9 11 mph 1016.7mb 60f 60f
1:00pm  -   -   -  7 9 mph 1016.6mb 60f 60f
12:50pm 2.5ft 12s 5s 9 9 mph 1016.9mb 60f 60f
12:40pm 2.5ft  -  5s 9 11 mph 1017mb 60f 60f
12:30pm  -   -   -  9 11 mph 1017mb 60f 60f
12:20pm  -   -   -  9 11 mph 1017.3mb 60f 59f
12:10pm  -   -   -  9 11 mph 1017.4mb 60f 59f
12:00pm  -   -   -  7 9 mph 1017.5mb - 60f
11:50am 2.5ft 5s 4s 4 7 mph 1017.8mb 60f 60f
11:40am 2.5ft  -  4s 2 4 mph 1018mb 60f 60f
11:30am  -   -   -  4 7 mph 1018.2mb 60f 59f
11:20am  -   -   -  4 7 mph 1018.6mb 60f 59f
11:10am  -   -   -  7 11 mph 1018.8mb 60f 59f
11:00am  -   -   -  9 11 mph 1019.1mb 60f 60f
10:50am 2.5ft 13s 5s 7 9 mph 1019.2mb 60f 60f
10:40am 2.5ft  -  5s 7 11 mph 1019.4mb 60f 59f
10:30am  -   -   -  9 11 mph 1019.7mb 60f 60f
10:20am  -   -   -  9 11 mph 1019.6mb 60f 60f
10:10am  -   -   -  9 11 mph 1019.4mb 60f 60f
10:00am  -   -   -  9 11 mph 1019.5mb 60f 60f
9:50am 2.5ft 5s 5s 7 9 mph 1019.4mb 60f 60f
9:40am  -   -   -  7 11 mph 1019.6mb 60f 59f
9:30am  -   -   -  7 9 mph 1019.6mb 60f 59f
9:20am  -   -   -  7 9 mph 1019.8mb 60f 60f
9:10am  -   -   -  7 9 mph 1019.8mb 60f 60f
9:00am  -   -   -  7 9 mph 1019.4mb 60f 59f
8:50am 2.5ft 10s 4s 7 9 mph 1019.5mb 60f 60f
8:40am  -   -   -  4 7 mph 1019.4mb 60f 59f
8:30am  -   -   -  4 7 mph 1019.5mb 61f 59f
8:20am  -   -   -  4 4 mph 1019.2mb 61f 60f
8:10am  -   -   -  2 4 mph 1019mb 61f 59f
8:00am  -   -   -  2 2 mph 1018.9mb 61f 59f
7:50am 2.5ft 10s 4s 2 4 mph 1018.7mb 61f 59f
7:40am  -   -   -  7 9 mph 1018.7mb 61f 59f
7:30am  -   -   -  9 13 mph 1018.6mb 61f 59f
7:20am  -   -   -  11 13 mph 1018.4mb 61f 60f
7:10am  -   -   -  11 16 mph 1018.5mb 61f 59f
7:00am  -   -   -  13 16 mph 1018.6mb 61f 59f
6:50am 2.5ft 11s 4s 13 18 mph 1018.6mb 61f 59f
6:40am 2.5ft  -  4s 13 18 mph 1018.6mb 61f 59f
6:30am  -   -   -  11 16 mph 1018.6mb 61f 59f
6:20am  -   -   -  11 11 mph 1018.4mb 61f 59f
6:10am  -   -   -  11 13 mph 1018.3mb 61f 59f
6:00am  -   -   -  9 13 mph 1018.3mb 61f 59f
5:50am 2.5ft 11s 5s 9 11 mph 1018.1mb 62f 59f
5:40am 2.5ft  -  5s 9 11 mph 1018.3mb 62f 59f
5:30am  -   -   -  7 9 mph 1018.6mb 62f 59f
5:20am  -   -   -  7 7 mph 1018.7mb 62f 59f
5:10am  -   -   -  7 9 mph - 62f -
5:00am  -   -   -  7 9 mph 1019mb - 59f
4:50am 2ft 12s 5s 7 7 mph 1018.9mb 61f 59f
4:40am  -   -   -  7 7 mph 1018.8mb 61f 59f
4:30am  -   -   -  4 7 mph - 61f -
4:20am  -   -   -  7 7 mph 1018.8mb 61f 59f
4:10am  -   -   -  7 9 mph 1018.8mb 61f 59f
4:00am  -   -   -  7 7 mph 1018.8mb 61f 59f
3:50am 2.5ft 12s 5s 4 7 mph 1018.9mb 61f 59f
3:40am 2.5ft  -  5s 4 4 mph 1018.9mb 61f 59f
3:30am  -   -   -  4 4 mph 1018.9mb 60f 59f
3:20am  -   -   -  4 7 mph 1018.8mb 60f 59f
3:10am  -   -   -  7 9 mph 1018.9mb 60f 59f
3:00am  -   -   -  7 9 mph 1019.1mb 60f 59f
2:50am 2.5ft 10s 4s 4 7 mph 1019.2mb 60f 60f
2:40am 2.5ft  -  4s 7 9 mph 1019.3mb 60f 59f
2:30am  -   -   -  7 9 mph 1019.5mb 60f 60f
2:20am  -   -   -  9 11 mph 1019.4mb 60f 60f
2:10am  -   -   -  9 11 mph 1019.5mb 60f 60f
2:00am  -   -   -  9 11 mph 1019.5mb - 60f
1:50am 2.5ft 12s 5s 11 13 mph 1019.5mb 60f 60f
1:40am  -   -   -  11 13 mph 1019.5mb 60f 60f
1:30am  -   -   -  11 13 mph 1019.4mb - 60f
1:20am  -   -   -  9 11 mph 1019.3mb 60f 60f
1:10am  -   -   -  11 11 mph 1019.3mb 60f 60f
1:00am  -   -   -  11 11 mph 1019.3mb 60f 60f
12:50am 2.5ft 5s 5s 11 13 mph 1019.5mb 60f 60f
12:40am  -   -   -  11 13 mph 1019.6mb 60f 60f
12:30am  -   -   -  9 11 mph 1019.6mb - 60f
12:20am  -   -   -  9 11 mph 1019.6mb 61f 60f
12:10am  -   -   -  9 11 mph 1019.7mb 61f 60f
12:00am  -   -   -  9 9 mph 1019.7mb 61f 60f
Sat 11/18 11:50pm 2.5ft 5s 5s 7 9 mph 1019.8mb 61f 59f
11:40pm  -   -   -  7 9 mph 1019.8mb 61f 60f
11:30pm  -   -   -  4 7 mph 1019.9mb 61f 60f
11:20pm  -   -   -  7 7 mph 1019.9mb 61f 60f
11:10pm  -   -   -  7 7 mph 1020.1mb 61f 60f
11:00pm  -   -   -  4 7 mph 1020.1mb 61f 60f
10:50pm 2.5ft 4s 4s 7 9 mph 1020.2mb 61f 60f
10:40pm  -   -   -  7 9 mph 1020.4mb 61f 60f
10:30pm  -   -   -  7 9 mph 1020.3mb 61f 60f
10:20pm  -   -   -  9 11 mph 1020.4mb 61f 60f
10:10pm  -   -   -  9 11 mph 1020.4mb 61f 60f
10:00pm  -   -   -  11 13 mph 1020.5mb 61f 60f
9:50pm 2.5ft 12s 4s 11 13 mph 1020.4mb 61f 60f
9:40pm  -   -   -  11 13 mph 1020.5mb 61f 60f
9:30pm  -   -   -  13 16 mph 1020.6mb - 60f
9:20pm  -   -   -  13 16 mph 1020.5mb 62f 60f
9:10pm  -   -   -  13 16 mph 1020.5mb 62f 60f
9:00pm  -   -   -  13 16 mph 1020.4mb 62f 60f
8:50pm 2.5ft 10s 4s 16 20 mph 1020.4mb 62f 60f
8:40pm  -   -   -  13 18 mph 1020.3mb 62f 60f
8:30pm  -   -   -  13 18 mph 1020.3mb 62f 60f
8:20pm  -   -   -  13 18 mph 1020.4mb - 60f
8:10pm  -   -   -  11 16 mph 1020.5mb 62f 60f
8:00pm  -   -   -  11 13 mph 1020.2mb 62f 60f
7:50pm 2.5ft 10s 5s 11 13 mph 1020.1mb 62f 60f
7:40pm  -   -   -  13 16 mph 1020mb 62f 60f
7:30pm  -   -   -  13 16 mph 1019.9mb 62f 60f
7:20pm  -   -   -  13 16 mph 1019.8mb 62f 60f
7:10pm  -   -   -  11 13 mph 1019.8mb 62f 60f
7:00pm  -   -   -  9 11 mph 1019.7mb 62f 60f
6:50pm 2.5ft 10s 5s 9 11 mph 1019.7mb 62f 60f
6:40pm  -   -   -  9 11 mph 1019.6mb 62f 60f
6:30pm  -   -   -  11 13 mph 1019.5mb 60f 60f
6:20pm  -   -   -  11 13 mph 1019.6mb 60f 60f
6:10pm  -   -   -  11 13 mph 1019.6mb 60f 60f
6:00pm  -   -   -  9 11 mph 1019.7mb 60f 60f
5:50pm 2.5ft 9s 5s 9 11 mph 1019.6mb 60f 60f
5:40pm 2.5ft  -  5s 9 9 mph 1019.5mb 60f 60f
5:30pm  -   -   -  9 9 mph 1019.5mb 60f 60f
5:20pm  -   -   -  9 9 mph 1019.5mb 60f 60f
5:10pm  -   -   -  9 9 mph 1019.6mb 60f 60f
5:00pm  -   -   -  7 9 mph 1019.6mb 60f 61f
4:50pm 2.5ft  -  5s 7 9 mph 1019.5mb 60f 61f
4:40pm 2.5ft 11s 5s  -  mph - - -
4:30pm  -   -   -  9 9 mph 1019.6mb 60f 61f
4:20pm  -   -   -  9 11 mph - 60f -
4:10pm  -   -   -  9 11 mph 1019.6mb 60f 61f
4:00pm  -   -   -  9 11 mph 1019.6mb 60f 61f
3:50pm 2.5ft 13s 5s 11 13 mph 1019.8mb 60f 60f
3:40pm 2.5ft  -  5s 11 13 mph 1019.9mb 60f 60f
3:30pm  -   -   -  11 13 mph 1020mb 60f 60f
3:20pm  -   -   -  11 13 mph 1019.9mb 60f 60f
3:10pm  -   -   -  9 11 mph 1019.9mb 60f 61f
3:00pm  -   -   -  9 11 mph 1019.9mb 60f 61f
2:50pm 2.5ft 9s 5s 9 11 mph 1019.8mb 60f 61f
2:40pm 2.5ft  -  5s 11 11 mph 1019.8mb 60f 61f
2:30pm  -   -   -  11 13 mph 1019.8mb 60f 61f
2:20pm  -   -   -  11 11 mph 1020mb 60f 60f
2:10pm  -   -   -  9 11 mph 1020mb 60f 60f
2:00pm  -   -   -  11 13 mph 1020.1mb 60f 60f
1:50pm 2.5ft 9s 5s 11 13 mph 1020.2mb 60f 60f
1:40pm 2.5ft  -  5s 11 13 mph 1020.4mb 60f 60f
1:30pm  -   -   -  13 16 mph 1020.3mb 60f 60f
1:20pm  -   -   -  11 13 mph 1020.5mb 60f 60f
1:10pm  -   -   -  11 16 mph 1020.5mb 60f 60f
1:00pm  -   -   -  13 16 mph 1020.6mb 60f 60f
12:50pm 2.5ft 10s 6s 11 13 mph 1020.8mb 60f 60f
12:40pm 2.5ft  -  6s 11 13 mph 1020.7mb 60f 60f
12:30pm  -   -   -  11 13 mph 1020.9mb 60f 60f
12:20pm  -   -   -  9 11 mph 1021mb 60f 60f
12:10pm  -   -   -  9 11 mph 1021.2mb 60f 60f
12:00pm  -   -   -  9 11 mph 1021.4mb 60f 60f
11:50am 2.5ft 11s 6s 9 11 mph 1021.6mb 60f 60f
11:40am  -   -   -  9 11 mph 1021.9mb 60f 59f
11:30am  -   -   -  9 11 mph 1022mb 60f 60f
11:20am  -   -   -  7 9 mph 1022.1mb 60f 60f
11:10am  -   -   -  7 9 mph 1022.3mb 60f 60f
11:00am  -   -   -  7 9 mph 1022.4mb 60f 60f
10:50am 2.5ft 9s 6s 7 9 mph 1022.5mb 60f 60f
10:40am 2.5ft  -  6s 9 9 mph 1022.5mb 60f 60f
10:30am  -   -   -  7 9 mph 1022.5mb 60f 60f
10:20am  -   -   -  7 9 mph 1022.5mb 60f 60f
10:10am  -   -   -  7 7 mph 1022.6mb 60f 60f
10:00am  -   -   -  7 7 mph 1022.8mb 60f 60f
9:50am 2.5ft 11s 6s 7 9 mph 1022.6mb 61f 60f
9:40am  -   -   -  7 9 mph 1022.6mb 61f 60f
9:30am  -   -   -  4 7 mph 1022.4mb 61f 60f
9:20am  -   -   -  7 9 mph 1022.4mb 61f 59f
9:10am  -   -   -  9 13 mph 1022.4mb 61f 60f
9:00am  -   -   -  11 13 mph 1022.5mb 62f 60f
8:50am 2.5ft 11s 6s 9 9 mph 1022.4mb 62f 60f
8:40am 2.5ft  -  6s 4 7 mph 1022mb 62f 60f
8:30am  -   -   -  4 7 mph 1021.8mb 62f 60f
8:20am  -   -   -  4 9 mph 1021.6mb 62f 60f
8:10am  -   -   -  4 7 mph 1021.5mb 62f 60f